Wind_Speed
38 32 32 33 35 35 36 35 35 36 36 34 33 30 31 31 30 29 30 32 34 35 36 37 38 40 41 42 43 44 44 43
34 31 32 35 33 33 33 35 36 38 38 39 39 36 35 35 34 34 35 36 37 38 39 41 42 42 43 44 46 46 47 46
32 28 33 33 32 33 34 34 37 40 40 41 42 41 41 41 41 41 41 41 41 42 43 43 44 46 47 49 50 49 48 49
32 31 33 33 33 33 35 36 38 41 42 42 43 44 44 45 45 46 47 46 46 47 48 48 49 50 51 52 51 47 45 49
30 29 32 32 34 36 38 39 40 44 45 45 46 46 47 49 49 50 51 52 51 51 52 53 53 53 53 52 50 51 50 49
37 32 31 33 32 36 38 40 41 44 47 48 49 50 51 52 54 54 54 54 55 56 56 56 55 54 53 53 53 54 53 51
38 38 37 36 36 38 38 40 42 45 47 48 51 53 54 54 55 56 57 58 58 58 56 56 57 57 57 57 58 58 56 56
41 44 45 45 41 42 43 44 45 47 49 51 53 55 57 59 59 60 60 60 59 59 59 60 60 60 60 58 56 56 57 56
53 52 49 51 44 46 46 47 49 51 53 54 55 56 57 58 59 60 61 62 63 62 62 62 62 63 63 63 63 61 59 59
54 51 44 43 46 46 46 48 48 49 51 52 53 55 56 59 61 61 61 62 64 65 67 68 68 68 66 64 63 62 63 64
44 45 42 43 42 42 45 47 49 51 53 54 55 56 59 60 61 63 61 60 61 62 62 63 62 61 60 61 61 61 64 62
37 37 41 47 51 52 53 52 52 52 53 54 55 56 55 52 53 57 61 62 62 62 62 63 64 65 65 64 63 64 64 64
51 51 49 49 47 42 43 45 45 45 46 48 50 50 52 52 54 55 55 55 56 57 58 59 61 63 64 65 65 66 64 64
51 49 46 43 40 38 39 42 44 46 49 50 49 49 50 50 50 53 56 55 57 58 59 59 61 62 60 57 61 62 62 60
42 42 43 41 40 39 40 43 46 48 48 47 47 47 49 51 52 55 58 59 61 61 65 66 66 67 64 65 60 64 63 60
47 41 46 47 46 43 41 40 41 41 43 44 47 50 52 54 56 57 60 62 65 66 67 69 69 70 68 67 65 65 65 65
45 38 40 42 40 38 40 42 44 45 46 47 48 50 52 54 57 60 62 64 64 65 67 66 66 66 66 66 67 67 67 66
43 36 42 41 40 41 41 43 45 46 45 45 46 49 53 55 58 59 60 60 59 58 56 55 55 55 56 57 58 61 63 65
36 38 43 43 42 41 42 42 41 40 42 45 49 51 53 53 53 52 49 45 46 47 48 49 50 52 52 51 51 51 49 50
Wind_Direction
268 266 268 266 263 265 269 270 269 271 272 270 270 270 269 271 273 279 283 284 284 285 286 287 287 287 287 287 287 287 286 284
275 276 272 266 266 265 264 267 270 274 277 278 279 278 277 278 280 282 285 283 282 283 284 285 286 286 287 288 287 287 288 287
272 268 266 268 262 262 264 266 268 272 273 276 279 281 281 281 283 286 286 287 285 284 284 285 288 290 289 289 289 287 287 287
270 271 270 268 265 265 267 270 273 273 274 273 274 277 279 281 284 286 288 288 287 287 288 288 288 289 288 288 288 289 290 288
271 268 268 268 267 266 268 268 268 269 271 273 274 276 278 280 283 285 287 288 287 286 286 286 286 285 286 287 289 291 291 288
269 267 268 269 270 267 268 270 271 270 272 273 275 277 278 281 283 285 285 285 285 286 287 287 286 287 286 287 289 289 289 285
269 268 266 266 269 272 272 271 271 273 274 275 276 278 280 281 282 284 284 284 285 285 286 286 287 287 285 285 286 287 285 283
266 268 271 272 274 272 271 273 272 273 275 276 277 279 280 281 282 283 283 284 285 286 286 287 287 287 287 287 287 286 285 283
273 273 275 275 273 272 273 273 274 275 275 276 277 279 280 281 283 285 286 286 287 288 289 288 288 288 289 288 287 287 283 279
276 277 277 274 272 272 273 273 273 275 277 279 281 283 284 285 286 287 287 288 288 289 290 290 291 290 288 286 283 280 277 277
270 275 274 274 269 268 271 273 277 279 282 283 284 283 283 285 287 290 293 293 291 290 290 290 288 287 287 286 284 283 280 277
262 268 275 278 278 282 282 282 282 282 282 282 284 286 289 291 292 292 293 291 289 288 286 286 286 286 286 285 284 284 281 279
275 278 284 289 289 287 285 285 286 287 289 290 291 292 291 290 288 288 287 290 291 292 294 293 293 292 289 288 286 283 281 279
278 285 287 284 285 286 289 291 292 292 291 291 292 289 287 287 290 291 291 295 295 294 293 293 294 294 294 292 289 283 279 277
278 278 279 284 289 291 292 293 292 292 291 289 288 292 292 291 293 293 294 294 295 295 296 296 296 293 291 288 286 286 285 281
271 280 287 290 291 293 292 293 293 292 291 291 292 293 294 294 296 297 298 298 299 300 299 297 295 293 292 291 286 284 281 279
272 291 286 288 287 289 290 290 291 291 290 291 293 294 298 300 302 301 300 301 301 299 297 295 293 292 289 287 284 282 281 278
281 286 280 282 283 287 288 292 292 292 295 297 301 302 301 302 303 304 303 302 302 302 302 301 301 300 298 294 290 286 282 281
279 288 286 285 286 286 287 289 291 293 298 300 301 303 303 304 304 306 308 311 311 310 310 309 307 307 305 300 297 293 289 288
Height
5755 5759 5760 5759 5758 5757 5757 5758 5757 5756 5756 5755 5757 5757 5757 5757 5755 5754 5753 5752 5751 5750 5749 5748 5747 5744 5743 5741 5740 5737 5736 5735
5750 5753 5752 5751 5752 5751 5750 5751 5750 5750 5750 5749 5749 5748 5748 5747 5747 5745 5745 5743 5743 5742 5740 5738 5736 5735 5733 5731 5729 5727 5724 5723
5742 5744 5742 5743 5743 5742 5742 5743 5742 5742 5741 5740 5740 5740 5739 5738 5737 5736 5734 5732 5732 5731 5729 5727 5725 5723 5721 5719 5717 5715 5712 5710
5734 5736 5735 5736 5736 5736 5735 5735 5735 5733 5732 5732 5730 5730 5729 5729 5727 5725 5724 5722 5720 5719 5717 5714 5713 5710 5708 5706 5704 5702 5701 5696
5725 5726 5727 5727 5728 5727 5726 5725 5726 5724 5723 5722 5721 5719 5718 5717 5717 5715 5713 5711 5710 5708 5705 5703 5701 5698 5695 5692 5690 5688 5686 5685
5716 5717 5718 5718 5720 5718 5717 5717 5717 5716 5715 5713 5711 5709 5708 5706 5705 5703 5701 5699 5697 5696 5693 5690 5687 5684 5681 5679 5676 5673 5671 5671
5707 5708 5709 5709 5709 5708 5708 5707 5707 5705 5704 5703 5701 5699 5697 5695 5693 5690 5688 5685 5682 5680 5678 5675 5672 5670 5667 5665 5662 5658 5656 5654
5697 5697 5697 5698 5698 5697 5696 5696 5695 5693 5692 5690 5689 5686 5684 5682 5679 5676 5674 5671 5668 5665 5662 5659 5656 5653 5651 5649 5646 5643 5640 5639
5683 5684 5685 5685 5685 5683 5683 5682 5682 5680 5678 5676 5675 5672 5670 5668 5665 5662 5659 5657 5654 5651 5648 5644 5640 5636 5634 5632 5630 5627 5624 5622
5670 5671 5671 5673 5672 5671 5670 5668 5668 5666 5665 5663 5662 5659 5656 5654 5651 5648 5645 5642 5638 5635 5631 5627 5622 5618 5615 5612 5610 5607 5604 5602
5657 5658 5660 5661 5661 5659 5658 5657 5656 5654 5651 5649 5648 5645 5642 5640 5637 5634 5630 5625 5621 5617 5613 5609 5605 5600 5597 5594 5591 5587 5585 5582
5647 5647 5647 5649 5648 5647 5646 5645 5643 5641 5638 5636 5634 5631 5628 5625 5622 5619 5615 5610 5605 5601 5596 5591 5587 5583 5578 5575 5573 5568 5565 5562
5635 5635 5635 5635 5636 5634 5633 5631 5630 5628 5626 5624 5621 5618 5615 5612 5607 5603 5598 5593 5587 5583 5578 5573 5568 5564 5559 5556 5553 5549 5545 5542
5624 5624 5624 5625 5624 5623 5622 5620 5618 5616 5613 5611 5609 5605 5601 5597 5592 5588 5583 5578 5573 5567 5562 5558 5553 5547 5542 5538 5534 5530 5525 5521
5616 5615 5614 5614 5613 5612 5611 5608 5606 5603 5600 5598 5595 5592 5588 5583 5578 5574 5569 5563 5558 5552 5546 5540 5534 5529 5526 5521 5518 5512 5508 5503
5608 5606 5605 5603 5603 5601 5598 5596 5594 5592 5589 5587 5583 5579 5575 5570 5565 5560 5554 5548 5541 5534 5528 5521 5514 5509 5505 5499 5497 5492 5488 5485
5601 5598 5592 5592 5592 5590 5588 5586 5584 5582 5578 5575 5571 5567 5562 5557 5552 5546 5539 5532 5524 5517 5510 5503 5495 5488 5483 5477 5473 5469 5464 5462
5588 5588 5584 5583 5582 5579 5578 5576 5573 5571 5567 5563 5559 5555 5550 5544 5539 5532 5525 5517 5509 5501 5494 5486 5477 5470 5463 5456 5451 5445 5441 5437
5580 5577 5573 5572 5570 5568 5567 5566 5563 5561 5557 5553 5549 5545 5540 5534 5528 5520 5513 5505 5497 5490 5482 5473 5465 5456 5448 5440 5434 5428 5423 5418